Location: Columbia
(38.9520°N, 92.3340°W)
Time: 15:18:55
(UTC-05:00)

Meteor 1-4 Rocket - Visible Passes

Search period start: 01 October 2014 00:00
Search period end: 11 October 2014 00:00
Orbit: 470 x 534 km, 81.2° (Epoch: 30 September)

Date Brightness Start Highest point End Pass type
(mag) Time Alt. Az. Time Alt. Az. Time Alt. Az.
01 Oct 5.6 06:19:02 10° SE 06:22:08 23° E 06:25:16 10° NE visible
02 Oct 6.0 06:00:27 10° SE 06:03:03 17° E 06:05:41 10° NE visible
03 Oct 6.2 05:42:08 10° ESE 05:43:58 13° E 05:45:49 10° ENE visible
05 Oct 2.7 06:36:47 10° SSW 06:40:40 73° W 06:44:37 10° N visible
06 Oct 2.9 06:17:33 10° S 06:21:27 81° E 06:25:24 10° N visible
07 Oct 3.4 05:58:23 10° S 06:02:14 58° E 06:06:07 10° NNE visible
08 Oct 4.1 05:39:19 10° SSE 05:43:00 42° E 05:46:44 10° NNE visible
09 Oct 4.7 05:20:20 10° SSE 05:23:47 31° E 05:27:17 10° NNE visible
10 Oct 5.2 05:01:28 10° SE 05:04:35 23° E 05:07:42 10° NE visible
10 Oct 4.0 06:36:58 10° SW 06:40:03 22° WNW 06:43:09 10° NNW visible
